Location: La Trinit�
(48.1620°N, 3.4512°W)
Time: 08:02:27
(UTC+00:00)

Spot 4 - Pass Details

Date: 08 May 2021
Orbit: 703 x 724 km, 98.3° (Epoch: 12 June)

Event Time Altitude Azimuth Distance (km) Brightness Sun altitude
Exits shadow 22:53:27 50° 120° (ESE) 916 4.0 -22.3°
Maximum altitude 22:54:25 62° 71° (ENE) 816 4.0 -22.3°
Drops below altitude 10° 22:59:14 10° 352° (N) 2,224 7.5 -22.6°
Sets 23:01:32 0° 349° (N) 3,148 8.6 -22.7°
